Theta_e
312 314 328 333 335 330 333 334 335 340 338 336 334 333 334 333 333 337 337 336 334 328 324 322 320 323 323 321 318 316 316 317 316 316 316 314 313 313 313 314 315 314 313 314 316 313 313 315 316
313 326 330 332 334 334 332 332 339 339 339 336 334 335 334 333 332 335 337 335 334 329 324 322 320 321 322 319 318 316 318 318 319 319 319 318 315 314 315 318 321 322 323 319 316 320 315 314 315
321 327 331 331 335 334 333 337 338 337 338 334 334 334 333 332 332 335 337 336 334 331 324 322 319 320 321 319 318 317 319 319 320 320 320 320 318 315 317 322 325 325 326 325 321 325 322 322 319
327 327 330 336 337 335 335 339 339 338 336 335 334 333 333 332 332 333 336 336 334 336 328 322 319 319 320 319 318 318 319 320 320 320 321 321 321 317 318 325 329 328 326 327 328 328 326 325 324
328 329 331 331 332 333 332 334 337 338 336 335 334 333 333 332 332 332 335 335 334 334 336 327 320 319 320 320 319 319 320 320 320 320 321 321 321 320 318 323 329 332 329 327 327 330 329 329 328
328 329 331 334 333 332 333 333 335 336 335 334 334 333 332 332 332 332 334 336 335 334 334 335 324 320 320 321 320 319 320 321 321 321 320 321 322 322 318 320 322 328 327 325 324 323 327 329 330
329 329 331 332 333 333 333 333 333 333 332 333 333 333 332 333 332 333 333 334 336 334 334 335 335 322 321 321 321 320 320 321 322 322 321 321 322 322 321 320 322 322 322 321 321 322 328 326 330
328 329 330 332 334 333 332 331 331 332 332 334 333 333 333 334 334 333 333 333 335 336 335 335 335 335 323 321 320 320 321 322 322 323 323 321 321 322 323 329 331 332 328 326 324 321 320 320 321
327 328 330 331 332 332 332 332 331 331 332 333 331 331 331 331 332 332 332 332 333 334 336 336 336 337 335 322 322 321 321 322 322 323 323 323 322 325 327 333 334 334 332 331 328 323 321 320 319
327 328 329 330 331 333 332 332 332 332 333 332 332 332 331 331 331 332 332 331 331 331 334 336 336 336 337 337 324 324 322 322 322 323 324 323 326 334 334 333 333 334 332 330 330 327 324 327 318
329 330 329 330 332 332 332 332 332 332 333 332 332 331 332 332 331 330 330 330 329 330 330 334 336 336 336 338 338 337 335 326 323 323 325 328 336 336 335 335 334 332 331 331 331 332 328 328 327
331 331 330 332 332 332 333 332 333 333 332 333 333 332 331 331 331 331 330 329 328 328 328 327 335 336 335 337 340 339 339 338 334 330 333 337 335 330 330 333 334 333 332 331 330 329 330 329 329
328 328 329 331 332 332 332 333 333 333 332 332 332 332 332 332 331 330 329 328 328 328 327 327 333 336 335 336 339 339 339 342 340 338 337 335 331 334 335 335 334 333 332 331 330 330 329 329 328
328 328 328 329 330 330 331 331 331 332 332 332 332 332 332 332 331 330 328 328 328 327 326 326 334 336 335 335 337 339 338 341 338 336 334 333 333 332 330 334 334 332 332 332 331 330 328 328 327
326 329 330 330 329 331 330 332 332 330 330 330 331 333 332 332 331 329 328 329 328 326 326 327 335 336 335 334 337 337 340 339 335 333 333 333 333 333 330 332 334 332 332 331 331 330 329 330 328
326 328 330 330 330 330 330 332 332 330 330 330 331 332 332 330 329 328 328 328 328 327 328 329 336 336 335 336 337 337 342 338 333 333 333 333 334 333 331 332 332 333 331 329 329 330 328 328 328
325 329 328 329 329 329 331 332 332 330 330 331 331 329 330 330 328 328 328 329 329 328 330 330 334 336 337 339 340 340 341 336 333 333 333 334 335 335 334 330 333 332 330 329 328 328 327 328 327
325 326 326 328 329 330 330 331 331 330 330 331 330 329 328 329 328 327 329 330 329 331 333 335 335 337 339 340 341 343 339 336 335 334 334 334 335 335 334 332 332 331 330 328 328 327 328 327 327
323 325 325 328 327 328 330 330 331 332 331 331 330 329 329 330 328 328 329 330 331 330 332 334 337 338 337 340 342 339 336 335 335 334 334 334 334 335 330 333 332 329 329 328 327 329 327 327 328
321 323 325 326 325 327 329 331 332 332 332 331 331 330 329 329 330 331 330 332 332 332 331 334 337 337 338 340 338 337 335 335 335 335 334 334 334 331 333 331 331 329 329 327 328 327 327 326 326
321 322 324 324 324 326 328 330 332 331 331 330 330 329 330 328 327 328 330 334 335 334 333 334 336 338 338 337 336 336 335 335 335 334 332 331 332 331 331 331 330 328 327 326 326 326 326 326 325
321 320 321 322 324 327 327 331 333 332 332 333 331 331 329 328 328 330 331 336 337 337 338 338 337 336 335 337 335 334 336 333 333 334 334 333 333 332 331 330 328 328 326 325 325 326 325 326 326
320 320 321 322 324 326 326 328 329 330 331 331 331 330 328 328 330 330 338 338 338 339 339 338 338 334 337 335 336 336 335 332 331 333 333 333 333 331 330 329 328 328 325 325 326 327 326 325 325
320 320 320 322 324 327 328 327 328 329 330 329 330 328 328 329 330 334 338 338 339 339 339 339 337 337 336 336 336 336 335 333 334 334 333 332 332 329 330 329 329 326 326 325 326 326 326 325 326
319 323 324 324 325 327 326 327 329 328 329 329 329 329 329 330 331 337 339 338 338 338 339 338 337 338 337 336 337 333 334 331 333 331 333 333 332 329 329 329 329 326 326 326 327 327 327 327 327
319 323 323 324 324 325 324 327 327 328 329 328 328 329 330 331 336 338 338 338 338 338 338 338 338 338 337 337 335 334 334 334 333 332 332 331 332 331 328 328 327 326 325 327 328 327 326 326 326
320 321 323 324 324 324 326 327 328 329 330 330 331 330 331 336 337 337 337 337 337 338 337 337 338 338 336 334 334 333 334 334 334 333 331 329 328 330 329 329 328 327 328 329 328 326 325 325 325
319 320 322 324 324 327 326 328 330 333 333 331 332 332 331 337 337 337 337 337 337 337 337 337 337 336 334 334 333 334 331 331 331 331 331 329 331 331 330 328 328 328 329 329 327 325 325 325 326
319 319 321 325 324 326 328 328 334 333 330 331 333 330 331 337 337 337 337 337 337 337 337 337 336 334 333 333 333 332 332 332 331 331 332 331 330 330 330 329 328 328 329 328 327 326 328 327 326
320 320 322 325 326 325 327 328 331 330 329 331 331 329 334 336 336 337 336 336 337 337 337 336 334 333 333 332 333 331 333 332 331 332 330 332 330 330 330 329 329 329 328 329 329 329 330 327 327
Wind_Speed
6 9 7 3 3 5 13 17 18 4 2 5 7 4 12 10 12 5 13 13 14 9 8 6 9 11 12 11 10 9 8 6 3 2 3 5 7 8 8 7 7 7 9 10 8 9 10 9 8
10 10 2 4 4 10 13 24 11 14 12 4 2 3 7 4 11 14 13 12 14 8 9 7 9 13 14 12 12 10 9 7 3 0 3 6 9 9 8 8 7 6 8 10 9 9 9 10 10
12 5 10 5 9 12 13 9 4 6 20 2 5 4 3 3 10 10 11 10 15 12 11 9 10 13 15 14 13 12 11 8 6 2 3 5 9 10 10 9 7 8 8 9 11 12 11 10 10
7 6 9 6 15 19 21 5 2 6 12 4 6 7 5 10 6 6 4 7 14 11 12 11 12 14 15 16 15 14 12 10 8 6 5 6 9 10 10 9 9 10 11 11 12 13 12 12 10
11 13 10 13 17 20 18 14 14 12 10 7 5 1 12 11 10 7 4 8 10 14 14 11 14 14 17 17 17 16 14 12 10 9 8 9 10 12 12 11 11 12 13 15 15 16 15 13 12
12 15 12 14 20 22 18 13 11 11 8 14 5 8 1 9 11 6 4 8 9 13 17 18 14 17 19 20 19 18 16 14 13 13 11 12 13 15 14 14 13 14 16 16 16 16 18 17 17
18 12 16 19 21 20 10 6 13 11 13 8 9 5 4 15 6 5 3 7 10 11 17 21 20 19 22 23 23 21 19 17 16 16 16 15 17 18 18 16 15 16 16 15 16 17 19 19 19
23 12 22 20 18 19 20 21 9 11 14 7 5 3 7 3 6 2 8 8 13 18 20 21 22 24 27 29 28 26 24 21 20 20 19 19 20 20 20 14 14 14 13 16 16 16 17 18 20
21 14 16 22 21 20 24 17 24 16 1 16 9 9 12 18 12 8 14 13 14 14 21 24 23 26 24 32 32 31 29 26 24 24 24 21 22 19 13 15 17 19 16 18 19 18 17 17 19
20 15 24 22 20 22 27 24 23 12 7 11 22 19 19 16 11 12 17 19 20 23 21 28 28 29 27 25 32 33 34 31 27 27 25 22 18 12 12 13 18 21 20 20 17 14 12 14 15
27 22 23 25 30 32 27 29 26 19 15 16 20 19 19 23 24 14 20 24 24 22 25 23 32 31 30 29 23 29 27 31 32 30 25 18 10 13 14 14 17 17 19 19 11 10 11 10 4
27 34 33 35 34 34 27 35 30 29 17 24 37 28 19 22 26 28 25 25 24 28 30 31 30 33 31 33 26 32 28 24 23 21 18 19 20 20 14 13 15 20 16 17 12 12 13 9 8
30 26 36 39 39 38 36 31 29 33 35 31 36 32 31 27 25 28 29 25 24 30 31 32 30 33 31 37 29 29 26 24 21 17 18 19 17 10 12 14 18 19 21 20 17 17 14 11 12
35 35 36 39 39 37 30 30 34 37 39 36 37 33 35 36 22 32 28 25 27 25 28 26 22 26 30 32 35 29 29 26 24 22 21 20 18 15 17 17 17 18 18 17 19 21 17 20 17
40 30 30 30 35 31 37 32 29 37 41 35 42 36 35 38 28 35 20 25 27 29 29 23 19 21 29 32 32 33 31 29 22 24 19 18 19 18 15 16 17 20 22 21 22 21 19 18 17
31 32 30 29 31 36 31 36 26 35 34 32 35 35 32 24 29 18 23 31 30 26 20 18 13 18 27 33 31 34 25 27 23 18 17 17 20 17 16 15 17 19 21 19 20 20 22 20 18
29 24 34 32 29 30 29 33 27 39 39 32 29 32 31 33 21 21 27 29 26 21 17 18 18 22 29 28 25 29 24 21 21 20 17 15 16 14 17 14 17 19 18 17 18 17 18 17 18
22 30 30 28 25 27 29 31 28 34 36 30 29 24 25 34 21 23 30 28 18 12 13 15 21 24 25 23 22 23 24 22 17 16 15 14 15 14 16 16 20 18 18 17 16 17 17 17 18
28 32 32 28 26 27 26 27 28 23 25 24 22 25 33 31 28 24 28 27 18 21 21 22 23 27 29 24 22 20 21 21 15 15 14 15 14 19 17 18 17 17 20 15 14 14 14 15 14
33 31 31 28 27 23 24 27 25 22 22 26 25 27 27 29 25 25 24 17 19 18 16 19 21 24 26 24 18 19 18 16 11 12 13 15 19 19 15 15 15 11 13 11 11 11 12 14 15
31 30 27 30 25 27 23 25 23 24 25 27 29 30 25 21 37 36 17 16 14 12 12 14 18 23 25 20 19 17 18 14 16 15 14 16 16 11 14 13 13 12 9 8 8 11 13 14 13
28 28 29 28 22 19 20 18 23 19 22 20 26 28 24 32 41 23 20 17 12 10 11 15 20 21 21 18 18 20 14 12 9 9 12 12 12 10 14 12 9 9 9 11 10 11 10 11 10
35 23 27 27 24 21 23 14 28 17 19 19 19 25 23 33 23 20 21 16 12 14 15 17 19 21 19 21 16 15 13 8 11 6 6 8 13 14 14 11 11 11 11 9 7 6 9 10 13
27 26 29 26 19 18 26 19 28 18 20 19 17 24 27 25 22 16 19 17 18 16 18 19 20 21 22 21 14 13 9 10 7 8 9 13 14 11 9 9 10 9 8 5 5 7 7 9 12
31 23 16 18 17 20 17 19 21 21 20 19 16 19 24 22 20 27 24 22 20 21 22 21 24 21 19 17 13 11 10 9 8 6 6 11 9 6 6 11 12 9 5 6 9 9 7 7 11
29 26 16 26 16 20 20 24 19 24 20 21 22 23 18 22 28 25 22 24 24 24 23 22 23 18 17 13 10 9 7 2 2 7 7 7 4 3 6 10 9 7 6 6 8 6 5 6 7
30 28 29 24 21 19 16 18 30 25 18 15 12 19 10 22 24 25 24 25 26 26 24 24 21 18 16 13 11 8 4 4 4 5 7 3 2 2 3 6 6 5 8 7 6 4 2 2 5
31 20 26 18 24 23 19 21 14 14 16 11 12 13 15 27 25 24 26 26 27 25 24 22 19 18 16 12 10 8 4 3 5 3 1 1 2 4 2 4 5 6 9 7 5 3 2 2 3
25 26 23 20 18 16 14 14 7 3 5 5 17 19 15 29 26 27 26 27 26 25 23 22 19 17 15 11 9 6 4 2 1 2 3 2 3 8 4 7 7 7 7 6 5 3 3 2 3
28 25 25 18 22 18 14 15 6 6 4 7 9 23 28 29 28 28 28 28 27 25 23 21 19 17 15 12 11 7 4 2 5 4 3 2 4 7 7 7 8 8 7 5 4 4 5 3 2
Wind_Direction
187 153 146 203 233 242 267 268 268 75 230 68 45 357 360 341 13 64 145 144 172 163 144 148 173 180 182 180 181 181 174 173 152 107 41 9 353 339 323 302 281 273 282 288 287 294 299 295 283
169 151 136 243 238 230 249 242 353 342 102 60 280 258 256 15 28 106 141 141 176 195 170 166 176 184 185 184 188 187 187 187 181 40 10 1 355 342 327 304 283 268 275 273 281 296 295 292 289
173 194 274 217 236 255 266 354 61 217 268 305 321 155 261 65 77 74 117 144 175 211 183 183 182 189 191 191 193 195 198 199 210 244 317 341 348 338 327 312 281 274 281 272 268 286 291 288 285
172 216 258 254 258 252 256 200 10 254 252 151 283 324 103 125 120 98 110 159 182 197 207 190 194 196 197 199 201 204 209 214 228 251 280 311 328 332 319 304 287 284 285 283 279 275 281 280 275
228 246 243 250 253 261 277 259 138 303 306 266 205 75 75 113 135 127 132 176 191 193 227 204 200 206 208 207 209 212 219 227 240 256 273 290 309 320 313 303 291 284 283 276 270 268 271 263 260
218 229 257 250 247 249 256 271 300 295 301 275 167 243 115 154 127 115 147 198 208 211 209 237 222 215 218 216 217 219 226 235 246 255 272 286 296 300 306 298 290 273 277 276 274 268 264 265 255
239 246 241 252 270 286 293 332 286 279 302 288 39 113 351 116 125 129 192 224 214 221 213 236 236 229 222 226 221 224 227 236 247 255 262 275 284 288 297 299 299 288 279 275 276 268 265 266 258
236 256 266 271 273 276 294 318 321 310 266 68 20 222 285 273 172 201 270 256 220 208 213 222 240 241 234 224 223 222 226 233 242 250 256 265 276 284 291 295 309 304 292 288 282 276 272 271 262
231 255 256 254 261 274 282 269 275 273 200 287 312 294 288 286 259 330 287 276 275 246 211 216 227 251 241 230 227 224 226 231 237 247 252 261 271 282 309 301 294 291 284 291 294 283 282 278 270
224 236 242 253 275 284 275 286 290 257 248 279 307 266 259 260 303 291 282 294 290 289 240 221 218 223 252 246 235 230 228 231 234 243 250 258 264 291 296 272 281 276 288 295 300 291 289 291 269
229 238 245 254 254 260 273 278 284 268 254 230 226 291 297 303 309 287 281 281 281 279 286 255 222 217 227 236 230 242 232 234 234 237 244 246 256 253 261 278 280 271 281 279 285 285 295 311 339
233 237 246 254 259 272 279 284 287 284 295 274 292 287 272 276 289 298 286 283 285 284 290 291 245 222 230 222 211 239 241 243 232 229 231 232 238 249 254 240 249 266 268 278 269 270 286 274 240
240 240 245 255 257 258 266 273 282 282 279 278 281 277 289 276 271 278 274 277 291 287 287 282 266 223 232 217 208 219 232 233 229 226 228 240 250 242 243 253 255 265 260 254 261 252 247 251 248
245 244 248 253 254 259 263 270 271 274 281 282 282 268 273 282 273 283 276 287 289 293 289 284 263 227 232 237 214 215 220 221 218 220 225 239 252 248 238 235 261 269 261 258 243 250 250 238 236
254 256 262 255 260 264 269 267 258 267 269 275 275 274 278 276 273 267 278 289 298 297 291 284 252 225 233 248 220 212 221 213 224 224 223 231 244 257 251 238 243 264 259 261 248 249 250 243 249
251 258 259 253 259 257 260 264 266 270 278 273 279 277 276 269 271 273 285 286 286 288 279 266 252 239 239 235 228 215 216 217 210 233 231 235 249 266 254 247 260 251 267 265 249 251 254 251 244
247 249 251 251 248 261 255 265 265 257 256 256 265 277 276 279 269 280 284 290 289 274 270 246 238 231 238 232 233 213 214 227 226 221 230 239 256 268 260 276 259 268 270 267 260 258 250 253 242
222 235 243 259 254 253 247 256 259 257 257 257 248 265 268 271 266 272 280 287 280 245 237 235 233 214 226 231 227 211 211 218 208 222 230 237 246 252 266 271 272 275 278 275 262 266 245 250 238
236 237 246 253 250 247 253 257 267 274 265 258 270 268 262 258 258 261 273 279 252 252 240 238 224 212 216 214 203 200 201 219 222 223 231 239 244 241 270 267 273 282 279 275 263 253 256 233 234
244 247 250 260 260 260 263 260 252 256 262 262 245 248 266 281 295 272 277 240 239 249 249 234 217 213 207 204 202 197 201 223 225 227 238 236 239 276 262 271 280 279 278 277 258 249 238 234 231
236 236 247 258 266 266 271 269 272 270 267 269 269 264 261 270 276 273 260 226 229 241 234 209 195 195 200 195 180 198 202 206 204 212 236 261 267 281 259 268 272 273 263 264 254 242 240 242 240
243 234 243 250 252 258 258 269 257 263 266 261 267 266 252 255 253 250 236 198 202 203 193 187 187 196 180 181 185 197 196 210 227 225 225 236 266 271 270 254 262 261 271 264 260 251 236 221 206
244 243 251 248 251 259 255 260 268 271 265 255 254 255 256 253 260 256 168 175 170 176 171 177 183 165 168 178 193 196 189 218 239 230 252 275 269 278 269 245 249 259 266 260 232 209 210 212 202
245 240 249 257 255 246 243 244 264 256 261 265 263 259 247 257 241 190 151 154 157 160 166 173 166 154 183 170 183 185 203 194 183 208 236 265 278 271 247 220 254 262 257 218 175 223 224 225 212
239 231 235 234 236 242 242 241 253 265 263 265 277 277 262 256 228 145 151 150 157 161 166 167 158 173 178 175 186 196 198 202 217 265 277 286 289 275 225 205 235 257 232 173 208 226 215 204 204
225 232 222 221 222 239 241 251 261 253 259 251 249 249 267 225 136 143 154 155 159 163 164 162 166 171 168 174 174 180 179 199 252 245 259 289 280 286 192 211 230 233 171 176 228 228 204 210 208
233 224 235 245 237 245 259 248 234 245 243 232 211 242 161 130 139 148 157 158 162 164 165 168 167 167 168 171 175 168 175 202 237 259 267 262 257 211 187 202 212 188 151 199 230 185 175 204 221
238 227 225 225 231 246 239 242 257 185 219 218 207 220 215 142 148 155 157 160 162 164 166 167 167 169 167 171 168 158 189 239 268 257 280 159 122 115 168 180 173 135 159 204 210 185 187 170 177
228 225 220 241 223 238 248 267 73 85 134 218 194 204 202 148 155 158 159 160 161 163 166 166 167 168 165 166 154 169 179 282 258 135 152 230 165 156 152 125 117 141 161 209 235 190 141 160 262
237 223 229 218 211 227 244 238 84 150 208 233 257 195 157 151 158 159 161 161 162 165 165 167 170 167 165 158 166 146 154 237 167 126 115 127 153 145 132 130 142 148 164 182 193 164 184 216 297